Temp
35 36 36 35 35 35 35 33 34 36 36 34 35 36 37 37 35 36 35 34 34 34 34 33 31 31 30 29 28 27 26 25 24 25 25 26 26 27 27 26 26 25 25 25
35 35 35 35 34 34 35 35 36 36 35 35 35 35 36 37 36 36 36 35 35 35 35 34 32 31 30 30 28 27 26 25 24 25 26 27 27 28 28 27 26 25 25 25
35 34 34 34 34 34 35 34 35 35 35 35 33 36 36 36 36 36 36 36 36 36 35 35 33 32 31 30 29 27 26 26 25 26 25 25 26 26 26 26 26 26 24 24
35 34 33 34 34 34 36 34 35 35 35 36 33 35 37 36 35 34 35 35 36 36 35 35 34 33 31 31 30 28 26 26 25 25 26 26 27 28 28 28 27 23 21 22
34 34 34 34 34 34 34 34 34 35 36 35 36 36 37 36 37 36 35 35 35 36 36 35 35 33 32 31 31 28 25 25 26 25 25 26 25 27 27 25 21 20 20 21
35 35 34 36 35 34 34 34 36 35 36 36 35 35 37 37 36 36 36 35 34 35 35 35 34 34 33 30 30 29 27 25 25 25 24 25 26 26 24 23 20 21 21 20
36 36 35 34 35 35 34 36 36 35 36 36 35 35 37 37 36 34 33 33 34 34 34 34 34 33 31 28 26 26 25 23 24 24 24 23 23 23 23 20 19 20 20 19
36 35 35 35 36 35 36 36 35 33 35 36 35 35 37 37 35 33 32 32 31 31 33 33 34 32 30 27 27 26 25 23 22 23 22 22 21 20 18 19 19 19 18 17
36 36 35 35 35 35 35 35 37 36 37 35 37 37 38 37 37 35 33 32 32 31 31 31 30 29 28 26 26 26 24 22 21 21 20 19 19 19 20 20 19 18 18 18
37 35 37 36 35 35 35 35 35 36 33 33 36 35 36 36 36 36 35 34 33 30 29 29 29 27 27 26 25 25 23 22 22 19 18 19 19 19 20 20 20 18 17 17
38 37 36 35 35 36 35 35 35 36 35 34 34 35 37 36 35 35 35 34 33 30 28 28 27 25 23 22 23 24 23 23 21 19 20 21 20 20 19 19 17 16 17 17
37 37 36 37 36 35 36 36 36 36 34 36 34 34 37 36 36 35 36 32 31 29 25 24 23 23 22 19 20 21 21 20 19 19 19 18 17 17 17 18 17 16 16 17
36 36 35 36 36 35 35 36 36 36 36 33 33 34 37 36 36 36 35 31 27 24 21 22 22 23 23 19 18 19 18 19 19 19 18 18 17 17 17 17 16 16 16 16
31 36 35 35 36 36 35 35 35 35 34 34 35 35 35 35 35 34 32 32 25 24 22 23 21 20 19 17 17 17 17 18 18 18 17 17 17 17 16 15 16 15 15 15
35 34 35 35 35 35 35 35 35 34 34 33 34 34 35 35 33 31 31 29 26 22 24 24 21 20 18 17 16 16 16 16 16 16 16 16 16 15 15 15 15 15 15 16
36 33 33 33 35 35 34 34 34 34 34 34 34 34 36 33 33 32 30 28 27 24 24 23 21 20 19 19 17 16 16 16 16 16 15 15 15 15 15 15 15 15 15 16
34 33 33 32 34 34 32 34 35 34 35 34 33 34 34 33 31 30 29 28 27 27 22 21 21 19 20 19 18 18 16 16 16 16 15 16 16 16 16 16 16 16 16 15
32 31 32 32 32 30 34 34 33 33 33 34 33 33 32 30 30 29 28 27 27 27 24 22 20 21 19 19 19 20 19 18 17 17 17 16 16 17 16 16 16 17 17 17
33 32 32 31 32 34 34 34 32 32 31 33 32 31 31 31 29 31 28 27 27 27 27 24 21 22 20 19 19 18 19 18 18 17 17 17 17 16 16 16 17 17 17 17
32 31 31 32 30 30 33 32 31 31 30 31 30 30 30 30 29 28 27 27 27 27 26 25 22 21 20 20 19 19 19 19 19 18 17 16 17 17 17 17 17 17 17 18
30 30 30 31 31 31 33 31 31 28 30 30 30 29 29 29 28 26 27 27 27 26 25 24 22 22 22 20 20 19 20 20 20 19 18 18 17 17 17 17 17 17 17 19
31 30 31 31 30 29 31 30 29 30 30 30 29 29 28 28 28 26 27 26 26 26 25 24 23 22 21 20 20 19 21 20 20 19 19 18 18 18 18 17 17 17 17 18
29 31 31 31 31 29 30 30 30 30 29 29 29 29 28 27 27 27 27 26 25 25 25 23 23 21 21 20 21 21 21 20 19 19 19 18 18 18 19 18 18 18 18 19
31 30 29 30 30 31 31 31 30 30 29 29 29 28 28 27 27 26 26 25 24 25 24 23 24 23 21 21 21 21 20 19 19 19 19 19 19 19 19 19 19 20 20 20
31 29 29 29 29 30 30 30 30 29 29 28 28 28 27 27 26 26 25 24 23 24 24 24 24 24 23 21 21 22 20 20 20 20 20 20 20 19 20 19 20 20 20 21
31 29 29 29 30 29 29 29 29 28 28 29 28 28 27 26 26 26 25 23 24 25 24 23 23 23 23 22 21 21 21 20 20 21 21 22 22 21 21 21 20 20 20 19
Height
772 777 781 780 777 777 780 791 787 771 765 777 773 767 758 753 761 762 764 768 773 774 776 782 789 794 799 804 809 813 817 821 825 828 830 833 834 836 838 840 843 845 847 848
778 781 774 774 777 780 777 782 777 768 767 774 768 768 754 749 755 755 757 760 765 768 770 775 782 789 794 798 805 810 813 818 821 824 827 828 831 833 835 837 840 841 844 845
785 783 777 783 782 785 780 787 784 785 770 766 777 762 759 750 748 751 751 751 755 758 764 768 775 781 787 793 798 803 808 813 818 821 825 829 831 832 834 835 837 839 841 842
779 777 784 786 789 783 783 780 778 777 778 785 776 789 759 755 756 756 754 751 750 752 757 761 767 775 781 785 792 798 803 806 811 816 820 823 825 827 827 831 831 839 838 839
790 782 784 786 786 781 787 776 780 778 776 775 773 780 757 753 754 752 750 748 746 746 749 754 759 768 775 780 786 793 799 801 805 810 814 819 823 824 827 830 833 835 835 836
776 768 775 772 773 775 774 778 772 774 773 784 784 788 764 760 762 752 745 746 745 744 747 750 756 762 768 777 781 785 791 796 801 805 809 814 818 822 825 832 834 836 837 837
775 772 768 770 779 772 779 779 790 799 789 792 776 785 765 752 750 754 755 750 747 746 748 751 755 759 767 775 779 781 788 791 796 802 807 811 815 820 824 829 831 833 834 834
787 794 774 766 772 780 777 779 797 823 804 793 775 790 763 746 747 752 753 751 752 751 748 749 750 758 766 773 776 779 785 788 790 796 806 811 809 813 821 825 829 832 831 831
785 783 764 766 765 770 780 789 765 787 770 790 769 762 745 743 742 747 751 752 751 753 752 753 759 765 766 769 772 777 784 788 789 791 796 807 810 816 821 826 829 827 826 824
769 794 762 764 767 767 772 767 786 776 816 815 781 779 768 756 751 748 747 746 747 753 757 758 761 766 768 769 772 775 777 783 788 793 797 801 809 814 817 815 818 820 823 825
759 772 776 770 772 769 775 779 777 775 782 803 803 779 743 751 750 749 745 744 744 751 756 760 764 768 771 772 771 771 775 778 785 789 791 792 792 795 804 813 815 820 823 823
759 766 781 770 761 761 761 766 766 782 793 773 784 780 740 746 745 742 738 745 747 751 761 765 769 769 769 771 770 769 772 776 780 786 788 794 800 804 805 812 813 819 819 819
763 774 789 774 766 762 769 760 762 763 767 786 792 775 732 738 740 736 737 745 755 762 769 768 768 767 768 771 770 770 771 775 780 785 789 790 794 800 802 805 811 813 814 816
772 768 779 789 773 763 773 765 763 767 779 773 767 759 747 741 742 739 743 742 756 763 767 764 769 772 773 773 773 772 772 774 777 781 786 789 794 798 802 805 808 811 812 815
765 780 769 767 762 764 765 765 762 767 763 777 762 760 748 742 744 748 745 746 755 764 761 762 767 771 774 774 774 775 775 777 778 781 783 788 794 799 804 804 807 810 813 816
756 782 774 778 762 759 766 759 758 756 755 754 752 755 731 738 737 742 746 749 751 759 759 764 767 770 772 773 775 775 778 778 780 783 785 788 793 799 802 806 808 811 813 815
766 773 777 785 763 765 780 755 749 749 745 746 760 743 735 741 746 747 748 750 751 749 762 767 767 770 770 772 774 776 779 780 783 786 788 789 793 799 802 805 807 810 812 815
772 778 777 781 773 800 749 738 745 753 748 741 740 739 740 747 746 743 745 748 749 750 756 761 766 766 769 770 772 776 780 780 781 787 791 789 791 797 802 805 807 810 812 815
758 766 775 784 773 755 747 740 751 757 758 740 745 745 741 741 745 733 744 747 748 746 748 754 760 764 769 771 772 774 780 779 782 789 791 789 792 798 801 804 806 809 812 815
759 763 772 766 788 787 751 745 745 747 767 742 745 746 745 742 754 751 748 746 746 745 747 751 757 762 766 769 772 776 778 780 782 784 790 790 794 797 800 803 805 808 811 812
770 770 774 767 771 759 736 743 745 777 765 744 743 745 746 749 749 748 746 743 743 743 747 750 755 757 762 766 770 773 776 778 780 783 788 790 794 798 800 802 805 807 809 811
765 768 762 762 773 776 737 746 763 747 741 740 743 743 746 743 742 747 744 743 743 743 747 750 753 756 761 765 769 773 774 778 780 783 788 792 795 797 799 802 805 807 809 811
768 750 753 753 750 744 740 744 739 739 743 742 742 741 742 742 741 742 741 741 742 742 744 749 752 757 761 764 767 769 773 777 780 783 787 790 794 796 798 801 803 805 807 806
740 742 753 752 742 738 736 735 736 738 739 737 738 739 739 740 738 740 739 739 740 739 743 748 749 752 758 761 765 768 772 776 779 782 785 788 791 794 796 798 799 799 799 801
738 743 747 746 740 737 736 734 732 734 734 736 736 735 735 734 734 737 739 738 740 738 741 744 745 748 753 759 763 766 770 774 777 780 782 785 786 790 791 793 793 793 794 794
733 740 748 744 734 737 737 733 731 734 733 731 734 732 732 734 734 734 734 737 734 736 738 741 743 747 751 755 759 764 768 772 775 777 778 778 780 782 785 786 789 790 790 792
Wind_Speed
2 10 3 5 5 1 3 2 6 4 2 8 14 13 12 11 15 15 16 17 17 18 20 23 23 22 20 20 20 19 20 19 20 20 20 18 17 15 14 14 12 10 9 8
10 2 3 2 3 5 5 6 6 1 2 7 11 15 12 10 14 16 16 17 18 18 17 21 23 23 24 23 22 22 22 22 22 21 20 19 17 16 14 13 11 10 9 9
7 7 3 2 1 6 4 8 8 10 8 7 10 6 3 6 11 13 15 15 18 18 18 19 23 25 25 25 26 28 26 25 24 23 19 16 12 12 12 12 11 9 8 9
2 4 2 3 3 6 3 5 9 11 10 8 4 4 2 2 2 10 14 17 18 19 18 17 21 24 26 28 27 27 28 29 28 26 22 21 18 17 16 14 7 4 2 3
6 1 5 6 3 4 5 4 7 10 10 7 6 6 8 4 5 1 8 14 18 19 19 20 19 22 23 23 24 24 26 30 29 28 28 22 20 16 13 6 5 4 1 3
8 3 6 3 1 3 2 8 9 6 5 3 7 6 2 11 10 6 7 5 10 15 18 17 22 21 20 15 18 21 23 26 27 26 26 24 18 16 6 5 4 2 3 4
4 7 2 5 6 4 6 10 4 3 2 5 5 8 6 12 9 9 11 9 6 9 13 13 14 15 13 18 17 18 20 22 29 28 19 18 14 11 10 10 8 6 3 2
6 7 8 9 6 8 4 9 7 7 8 10 2 4 6 8 7 8 8 8 5 5 8 10 9 7 14 15 13 18 20 20 26 25 15 15 21 21 19 16 11 4 4 3
4 5 4 6 3 7 6 7 8 11 13 8 4 5 10 6 7 10 10 5 4 2 2 3 4 5 4 12 15 18 17 17 23 23 29 25 22 20 18 11 11 18 20 15
2 10 4 6 5 8 10 6 7 6 7 11 12 13 8 11 17 15 14 11 4 3 4 4 5 5 4 6 9 16 18 20 20 23 26 28 23 20 15 17 19 19 16 14
8 7 3 5 10 9 6 10 7 8 7 11 13 9 15 12 12 17 15 12 5 6 4 2 1 0 1 3 6 12 19 21 23 26 31 28 34 35 33 21 12 20 17 14
1 7 10 11 3 3 9 11 9 9 11 10 9 14 7 6 14 17 17 10 4 2 3 1 2 3 2 1 4 10 14 20 26 25 30 23 26 24 20 16 18 19 16 14
3 8 10 12 11 9 8 8 11 10 12 15 12 10 11 14 16 16 15 7 2 4 7 5 3 2 1 2 4 10 14 18 22 22 22 25 27 24 21 21 20 19 16 16
2 13 12 13 15 9 12 12 11 14 11 14 15 19 19 16 15 15 14 10 7 8 8 7 4 2 0 2 3 7 12 19 21 21 20 20 21 18 14 18 21 19 18 17
6 12 11 14 12 13 16 16 15 17 16 18 21 22 19 16 11 11 10 6 8 9 11 7 7 6 6 6 7 7 10 14 18 18 17 16 14 14 15 17 16 16 16 15
8 13 10 17 17 17 19 18 20 21 21 22 20 19 11 9 8 11 7 4 6 11 9 8 8 9 11 11 12 12 11 12 13 14 14 15 17 16 17 16 16 14 13 12
14 12 13 17 16 14 15 17 17 14 15 16 15 15 17 12 13 9 7 3 4 3 6 8 9 12 12 11 12 14 14 15 14 14 15 15 15 15 14 14 13 12 12 11
13 11 11 13 12 15 5 2 5 12 14 15 15 13 13 10 10 8 3 3 3 5 9 11 13 16 16 14 13 9 15 16 16 12 14 18 15 14 13 12 13 13 13 13
11 11 8 7 10 14 14 9 3 9 14 14 8 9 11 8 9 11 2 1 5 5 7 13 15 14 15 16 15 16 16 15 15 14 13 13 14 13 12 13 13 13 12 12
7 8 8 9 11 11 4 3 3 5 12 10 7 11 13 12 9 7 3 5 6 7 8 11 15 16 17 16 16 16 14 14 16 14 13 13 12 13 13 13 13 12 11 9
10 9 14 13 13 10 4 4 1 9 4 11 11 11 12 10 5 5 7 8 6 5 10 12 17 18 17 17 16 15 15 15 13 14 13 12 12 13 12 12 11 11 10 9
10 7 9 10 13 15 8 6 7 9 11 11 10 10 10 9 5 6 8 6 4 6 10 12 15 15 17 18 18 18 16 15 15 14 14 14 13 12 12 12 11 11 13 14
10 13 9 5 3 7 2 7 11 8 9 9 9 10 9 8 5 1 4 5 4 8 10 12 14 18 17 19 19 18 17 17 17 16 15 15 15 15 14 15 15 15 15 15
11 6 8 12 10 14 11 10 11 11 10 9 8 9 9 9 8 7 5 5 5 6 8 13 13 18 19 19 19 19 20 19 19 18 17 16 16 16 15 16 16 16 15 16
7 2 10 14 15 15 17 15 11 9 8 8 7 8 9 9 9 8 2 4 7 8 11 13 16 17 18 19 20 21 21 21 19 18 17 17 17 18 16 17 16 16 16 16
11 13 12 13 12 11 14 12 12 9 10 9 8 9 4 5 5 9 7 8 8 10 12 14 16 15 18 21 22 22 22 22 20 19 19 18 16 15 16 15 15 18 18 13
Wind_Direction
214 262 40 39 17 43 302 313 284 287 261 282 270 281 287 188 222 212 206 198 205 209 203 197 200 203 206 202 201 200 198 198 195 196 198 204 209 212 219 223 227 234 236 234
227 291 91 20 319 288 274 247 339 12 323 285 300 295 284 246 217 227 216 213 209 208 206 200 198 204 208 207 205 206 203 200 199 201 204 210 215 223 228 227 230 229 231 238
306 57 104 242 238 265 82 335 351 329 306 233 302 241 106 216 235 227 235 227 218 215 210 202 202 204 208 210 207 208 205 202 204 207 206 209 219 227 222 225 232 235 240 247
345 97 214 265 264 279 68 353 318 319 313 350 7 309 162 71 241 228 232 229 228 222 219 216 207 209 210 213 211 212 206 202 206 204 208 211 220 228 230 237 220 211 130 167
94 269 251 278 33 299 28 297 321 311 296 289 104 262 80 152 35 233 225 235 236 231 224 218 218 214 215 219 217 215 216 212 206 206 210 213 224 235 243 215 178 202 103 54
275 279 275 305 275 295 326 278 255 268 281 211 44 332 276 28 356 353 318 308 265 237 234 234 226 220 215 215 214 212 213 215 208 207 210 213 215 223 198 192 162 173 132 116
212 205 170 244 247 190 250 262 294 301 232 27 62 298 323 21 10 346 324 317 300 249 236 236 241 237 216 215 212 200 214 210 208 211 212 206 193 204 187 155 141 147 171 156
281 181 191 169 261 341 292 312 304 308 325 332 132 280 8 34 33 8 338 331 316 279 240 239 225 217 208 224 208 208 212 206 189 199 196 192 170 152 139 143 133 128 152 157
294 234 116 205 195 258 115 248 4 291 276 265 317 332 297 152 72 28 350 327 303 283 223 190 201 194 217 193 210 208 216 203 186 184 163 151 138 137 127 95 327 274 242 211
336 280 99 113 231 222 260 354 254 216 285 296 307 306 296 347 332 346 343 336 277 213 221 192 200 200 195 191 210 212 200 205 191 163 151 147 146 146 168 253 255 244 211 202
300 265 152 173 210 302 181 234 226 300 280 302 299 308 343 330 332 331 327 335 290 224 229 205 258 352 275 232 225 203 196 195 178 164 166 182 196 207 215 224 219 203 197 201
349 298 283 304 62 273 277 286 276 284 292 287 294 285 65 315 323 310 315 345 308 232 181 136 21 9 46 64 164 180 170 172 172 183 182 179 186 189 185 193 192 189 191 191
201 259 275 249 185 197 237 233 263 286 286 270 284 290 316 316 315 316 343 333 171 194 160 176 196 216 118 119 170 170 167 173 178 189 182 173 173 185 186 188 188 195 203 192
224 264 273 282 312 321 287 260 244 274 281 293 286 304 319 322 316 343 341 316 169 189 193 176 171 172 188 88 116 140 146 158 170 164 167 165 175 192 201 185 181 175 174 171
261 274 283 276 284 276 276 280 280 272 268 276 296 301 309 313 351 331 329 322 161 194 215 182 164 157 155 143 127 127 134 153 161 160 159 156 158 166 163 155 156 158 158 165
251 275 280 276 276 271 270 272 276 276 279 280 282 289 302 0 323 336 333 281 208 211 196 191 171 166 168 158 145 135 137 143 150 146 150 152 156 158 159 157 157 156 158 162
283 280 270 271 288 298 281 268 265 272 274 284 286 308 331 326 334 339 347 322 274 221 169 188 189 179 179 166 156 150 150 145 150 152 155 153 155 160 161 158 153 160 159 159
261 255 267 271 280 259 314 47 311 297 293 287 292 304 340 342 322 318 312 285 207 216 184 184 186 186 179 173 164 152 162 156 152 159 161 154 153 164 166 163 165 163 162 167
248 248 247 252 244 268 283 290 293 326 305 306 336 336 336 351 320 276 96 25 302 250 207 183 182 194 175 176 168 159 174 152 153 163 166 152 162 168 171 177 165 165 168 171
220 238 251 239 267 277 325 106 24 311 277 60 352 344 341 343 321 70 46 343 316 237 194 176 175 180 181 177 169 173 161 160 157 150 169 164 175 173 175 173 167 170 175 175
212 229 237 242 254 265 316 119 170 257 5 345 349 338 332 327 326 315 301 311 321 213 183 178 174 180 178 171 173 171 173 171 159 156 163 164 174 176 175 173 174 179 184 190
237 235 243 240 272 269 111 147 247 347 326 329 325 328 323 324 292 266 290 307 293 191 179 189 179 178 173 176 178 187 179 168 161 164 171 177 178 180 178 182 186 194 205 214
249 247 282 256 290 115 213 285 308 303 288 300 310 325 318 307 285 313 298 285 253 209 186 194 191 164 179 182 185 180 176 172 170 173 178 181 185 191 190 197 204 209 215 235
232 237 251 265 246 261 285 291 290 277 273 295 318 310 304 284 260 258 288 251 212 203 205 200 193 178 184 184 185 183 175 176 177 180 183 185 191 197 203 207 213 224 221 216
275 180 256 263 266 277 270 275 284 282 271 270 281 294 301 288 248 244 264 249 213 200 198 197 200 194 188 186 187 183 180 181 185 188 191 195 200 201 206 221 223 220 225 223
258 249 260 269 282 291 283 285 286 294 288 271 287 298 275 268 235 225 190 212 196 202 200 202 207 199 195 191 190 190 187 189 195 196 201 202 206 201 213 205 218 232 244 234